Location: LDNL
(36.4545°S, 141.6685°E)
Time: 05:38:01
(UTC+11:00)

Tiros 1 despin weight - Visible Passes

Search period start: 29 November 2022 00:00
Search period end: 09 December 2022 00:00
Orbit: 590 x 637 km, 48.2° (Epoch: 28 November)

Date Brightness Start Highest point End Pass type
(mag) Time Alt. Az. Time Alt. Az. Time Alt. Az.
01 Dec ? 04:42:16 10° NNE 04:44:37 14° NE 04:46:59 10° E visible
02 Dec ? 04:56:07 13° N 04:59:26 29° NE 05:03:16 10° ESE visible
03 Dec ? 05:10:37 14° NW 05:14:21 59° NE 05:18:43 10° ESE visible
04 Dec ? 03:48:04 18° NE 03:48:22 18° NE 03:51:24 10° E visible
04 Dec ? 05:25:02 10° WNW 05:29:25 73° SSW 05:33:52 10° SE visible
05 Dec ? 04:02:25 34° NNE 04:03:11 36° NE 04:07:17 10° ESE visible
06 Dec ? 04:16:42 41° NW 04:18:10 74° NE 04:22:36 10° ESE visible
07 Dec ? 02:53:58 18° E 02:53:58 18° E 02:55:36 10° E visible
07 Dec ? 04:30:54 26° WNW 04:33:15 60° SSW 04:37:40 10° SE visible
08 Dec ? 03:08:07 37° E 03:08:07 37° E 03:11:14 10° ESE visible
08 Dec ? 04:45:04 14° W 04:48:29 36° SSW 04:52:37 10° SE visible
